DW9568 Weather Reports


time (UTC)temp
F
wind
direction
speed
knots
gust
knots
rain 1hr
in
rain 24hr
in
rain mn
in
humidity
%
barometer
mb
20260906124508 68 300 0.0 0.0 0.00 0.00 0.00 99 1018.5
20260906123009 67 300 0.0 0.0 0.00 0.00 0.00 98 1018.3
20260906121504 67 300 0.0 0.0 0.00 0.00 0.00 98 1018.2
20260906120005 67 299 0.0 0.0 0.00 0.00 0.00 98 1018.2
20260906114506 67 299 0.0 0.0 0.00 0.00 0.00 98 1017.7
20260906113100 67 299 0.0 0.0 0.00 0.00 0.00 98 1017.5
20260906111603 67 299 0.0 0.0 0.00 0.00 0.00 98 1017.4
20260906110100 67 299 0.0 0.0 0.00 0.00 0.00 98 1017.4
20260906104625 67 299 0.0 0.0 0.00 0.00 0.00 98 1017.3
20260906103056 66 299 0.0 0.0 0.00 0.00 0.00 98 1017.2
20260906101557 66 299 0.0 0.0 0.00 0.00 0.00 98 1016.9
20260906100053 66 299 0.0 0.0 0.00 0.00 0.00 98 1017.0
20260906094552 66 299 0.0 0.0 0.00 0.00 0.00 98 1016.9
20260906093108 65 299 0.0 0.0 0.00 0.00 0.00 97 1016.7
20260906091551 65 299 0.0 0.0 0.00 0.00 0.00 97 1016.7
20260906090051 65 299 0.0 0.0 0.00 0.00 0.00 97 1016.5
20260906084550 65 299 0.0 0.0 0.00 0.00 0.00 97 1016.7
20260906083049 65 299 0.0 0.0 0.00 0.00 0.00 96 1016.6
20260906081548 66 299 0.0 0.0 0.00 0.00 0.00 95 1016.7
20260906080046 66 299 0.0 0.0 0.00 0.00 0.00 96 1016.6
20260906074545 67 299 0.0 0.0 0.00 0.00 0.00 95 1016.8
20260906073043 67 299 0.0 0.0 0.00 0.00 0.00 95 1016.8
20260906071542 68 299 0.0 0.0 0.00 0.00 0.00 95 1016.8
20260906070039 68 299 0.0 0.0 0.00 0.00 0.00 94 1016.8
20260906064537 69 299 0.0 0.0 0.00 0.00 0.00 94 1016.8
20260906063035 69 299 0.0 0.0 0.00 0.00 0.00 94 1016.9
20260906061535 69 299 0.0 0.0 0.00 0.00 0.00 94 1016.9
20260906060033 69 299 0.0 0.0 0.00 0.00 0.00 94 1016.7
20260906054532 70 298 0.0 0.0 0.00 0.00 0.00 93 1016.8
20260906053031 70 302 0.0 0.0 0.00 0.00 0.00 93 1016.8
20260906051532 70 43 0.0 0.0 0.00 0.00 0.00 93 1016.6
20260906050027 70 43 0.0 0.0 0.00 0.00 0.00 93 1016.6
20260906044525 70 43 0.0 0.0 0.00 0.00 0.00 92 1016.4
20260906043023 70 43 0.0 0.0 0.00 0.00 0.00 93 1016.4
20260906041524 70 43 0.0 0.0 0.00 0.00 0.00 92 1016.2
20260906040018 71 43 0.0 0.0 0.00 0.00 0.00 92 1016.0
20260906034516 71 43 0.0 0.0 0.00 0.00 0.00 91 1015.8
20260906033013 71 43 0.0 0.0 0.00 0.00 0.00 90 1015.5
20260906031513 72 43 0.0 0.0 0.00 0.00 0.00 90 1015.2
20260906030011 72 41 0.0 0.0 0.00 0.00 0.00 90 1015.3
20260906024509 71 23 0.0 0.0 0.00 0.00 0.00 91 1015.3
20260906023018 72 23 0.0 0.0 0.00 0.00 0.00 91 1015.1
20260906021513 72 28 0.0 0.0 0.00 0.00 0.00 91 1015.1
20260906020008 71 35 0.0 0.0 0.00 0.00 0.00 92 1015.2
20260906014507 71 35 0.0 0.0 0.00 0.00 0.00 92 1015.2
20260906013006 72 9 0.0 0.0 0.00 0.00 0.00 91 1015.2
20260906011506 72 15 0.0 0.0 0.00 0.00 0.00 90 1015.1
20260906010005 73 15 0.0 0.0 0.00 0.00 0.00 89 1015.1
20260906004504 74 14 0.0 0.0 0.00 0.00 0.00 88 1014.9
20260906003101 75 39 0.0 0.0 0.00 0.00 0.00 87 1014.8
20260906001600 76 49 0.0 0.0 0.00 0.00 0.00 87 1014.6
20260906000100 77 49 0.0 0.0 0.00 0.00 0.00 86 1014.5
20260905234612 78 55 0.0 0.0 0.00 0.00 0.00 85 1014.5
20260905233058 79 332 0.0 0.9 0.00 0.00 0.00 84 1014.3
20260905231558 80 342 0.0 0.0 0.00 0.00 0.00 82 1013.8
20260905230125 80 335 0.0 0.0 0.00 0.00 0.00 82 1013.8
20260905224556 81 335 0.0 0.0 0.00 0.00 0.00 81 1013.7
20260905223055 81 335 0.0 0.0 0.00 0.00 0.00 80 1013.6
20260905221600 82 335 0.0 0.0 0.00 0.00 0.00 79 1013.6
20260905220053 81 335 0.0 0.0 0.00 0.00 0.00 80 1013.6
20260905214553 81 335 0.0 0.0 0.00 0.00 0.00 80 1013.4
20260905213052 81 333 0.0 0.0 0.00 0.00 0.00 82 1013.5
20260905211557 80 333 0.0 0.0 0.00 0.00 0.00 83 1013.7
20260905210051 80 333 0.0 0.0 0.00 0.00 0.00 82 1013.7
20260905204550 80 333 0.0 0.0 0.00 0.00 0.00 82 1014.0
20260905203055 79 334 0.0 0.0 0.00 0.00 0.00 84 1014.0
20260905201553 78 334 0.0 0.0 0.00 0.00 0.00 86 1014.1
20260905200052 78 334 0.0 0.0 0.00 0.00 0.00 86 1014.2
20260905194547 79 334 0.0 0.0 0.00 0.00 0.00 87 1014.1
20260905193104 78 332 0.0 0.0 0.00 0.00 0.00 88 1014.2
20260905191546 78 330 0.0 0.0 0.00 0.00 0.00 87 1014.2
20260905190046 79 330 0.0 0.0 0.00 0.00 0.00 87 1014.2
20260905184546 79 330 0.0 0.0 0.00 0.00 0.00 86 1014.4
20260905183049 80 330 0.0 0.0 0.00 0.00 0.00 85 1014.4
20260905181544 80 330 0.0 0.0 0.00 0.00 0.00 85 1014.4
20260905180043 80 326 0.0 0.0 0.00 0.00 0.00 86 1014.2
20260905174543 80 326 0.0 0.0 0.00 0.00 0.00 85 1014.2
20260905173044 80 326 0.0 0.0 0.00 0.00 0.00 86 1014.3
20260905171542 81 326 0.0 0.0 0.00 0.00 0.00 85 1014.2
20260905170041 81 326 0.0 0.0 0.00 0.00 0.00 84 1014.2
20260905164539 81 301 0.0 0.0 0.00 0.00 0.00 86 1014.2
20260905163035 79 300 0.0 0.0 0.00 0.00 0.00 89 1014.4
20260905161532 78 299 0.0 0.0 0.00 0.00 0.00 91 1014.3
20260905160031 77 299 0.0 0.0 0.00 0.00 0.00 93 1014.3
20260905154535 76 298 0.0 0.0 0.00 0.00 0.00 94 1014.4
20260905153029 76 298 0.0 0.0 0.00 0.00 0.00 94 1014.3
20260905151526 75 297 0.0 0.0 0.00 0.00 0.00 94 1013.9
20260905150031 75 298 0.0 0.0 0.00 0.00 0.00 94 1013.8
20260905144524 75 298 0.0 0.0 0.00 0.00 0.00 95 1013.6
20260905143024 74 298 0.0 0.0 0.00 0.00 0.00 96 1013.5
20260905141524 74 298 0.0 0.9 0.00 0.00 0.00 96 1013.5
20260905140023 73 321 0.0 0.0 0.00 0.00 0.00 96 1013.6
20260905134523 73 321 0.0 0.0 0.00 0.00 0.00 97 1013.4
20260905133020 73 43 0.0 0.0 0.00 0.00 0.00 97 1013.5
20260905131520 73 49 0.0 0.0 0.00 0.00 0.00 97 1013.3
20260905130019 73 5 0.0 0.0 0.00 0.00 0.00 98 1013.6